Regional Weather Roundup
Issued by NWS Goodland, KS

Home | Current Version | Previous Version | Text Only | Print | Product List | Glossary Off
Versions: 1 2 3 4 5 6 7 8 9 10 11 12 13 14 15 16 17 18 19 20 21 22 23 24 25 26 27 28 29 30 31 32 33 34 35 36 37 38 39 40 41 42 43 44 45 46 47 48 49 50

000
ASUS43 KGLD 302059
RWRGLD

GOODLAND FORECAST AREA HOURLY WEATHER ROUNDUP
NATIONAL WEATHER SERVICE GOODLAND KS
300 PM MDT WED JUL 30 2014

...OFFICIAL OBSERVATIONS...

CITY           SKY/WX    TMP DP  RH WIND       PRES   REMARKS
GOODLAND KS    CLOUDY    70  55  59 E9        30.26F
HILL CITY KS   PTSUNNY   78  54  43 NE7       30.17F
IMPERIAL NEB   MOSUNNY   76  54  46 CALM      30.23S
MCCOOK NEB     MOSUNNY   78  55  44 CALM      30.19F
AKRON CO       LGT RAIN  62  57  83 SW6       30.33R
BURLINGTON CO  CLOUDY    66  53  63 E8        30.29R
LIMON CO       LGT RAIN  60  55  83 E7        30.35R
$$

...UNOFFICIAL OBSERVATIONS...

CITY           SKY/WX    TMP DP  RH WIND       PRES   REMARKS
COLBY KS       PTSUNNY   73  59  60 SE3       30.24F
GOVE KS          N/A     71  32  23 MISG        N/A
LENORA KS        N/A     76  32  20 MISG        N/A
NORTON KS      PTSUNNY   81  48  32 E6        30.17S
WAKEENEY KS      N/A     74  49  41 MISG        N/A
KIT CARSON CO    N/A     67  56  67 N12         N/A
YUMA CO          N/A     66  55  68 S5          N/A
$$


USA.gov is the U.S. government's official web portal to all federal, state and local government web resources and services.